K5RLW Weather Reports


time (UTC)temp
C
wind
direction
speed
KPH
gust
KPH
rain 1hr
cm
rain 24hr
cm
rain mn
cm
humidity
%
barometer
mb
20260506051016 16 0.0 0.0 0.00 0.00 0.00 76 1011.1
20260506045035 17 0.0 0.0 0.00 0.00 0.00 76 1010.9
20260506044035 17 0.0 0.0 0.00 0.00 0.00 76 1010.8
20260506043017 17 0.0 0.0 0.00 0.00 0.00 74 1010.7
20260506042017 17 0.0 0.0 0.00 0.00 0.00 74 1010.7
20260506041037 17 0.0 0.0 0.00 0.00 0.00 73 1010.6
20260506040017 17 0.0 0.0 0.00 0.00 0.00 73 1010.8
20260506035017 18 0.0 0.0 0.00 0.00 0.00 73 1010.6
20260506034017 18 0.0 0.0 0.00 0.00 0.00 73 1010.5
20260506033017 18 0.0 0.0 0.00 0.00 0.00 73 1010.1
20260506032037 18 0.0 0.0 0.00 0.00 0.00 73 1009.8
20260506031037 18 0.0 0.0 0.00 0.00 0.00 73 1009.6
20260506030017 18 0.0 0.0 0.00 0.00 0.00 73 1009.4
20260506025017 19 0.0 0.0 0.00 0.00 0.00 73 1009.1
20260506024017 19 0.0 0.0 0.00 0.00 0.00 72 1008.9
20260506023017 19 0.0 0.0 0.00 0.00 0.00 71 1008.9
20260506022037 19 0.0 0.0 0.00 0.00 0.00 70 1008.7
20260506021037 20 0.0 0.0 0.00 0.00 0.00 70 1008.6
20260506020017 20 0.0 0.0 0.00 0.00 0.00 71 1008.5
20260506015037 20 0.0 0.0 0.00 0.00 0.00 70 1008.4
20260506014036 20 0.0 0.0 0.00 0.00 0.00 70 1007.9
20260506013016 20 0.0 0.0 0.00 0.00 0.00 69 1007.5
20260506012016 21 0.0 0.0 0.00 0.00 0.00 69 1007.4
20260506011037 21 0.0 0.0 0.00 0.00 0.00 68 1007.1
20260506010017 21 0.0 0.0 0.00 0.00 0.00 68 1006.9
20260506005017 22 0.0 0.0 0.00 0.00 0.00 67 1006.9
20260506004016 22 0.0 0.0 0.00 0.00 0.00 68 1006.7
20260506003016 22 0.0 0.0 0.00 0.00 0.00 67 1006.4
20260506002016 22 0.0 0.0 0.00 0.00 0.00 66 1006.1
20260506001017 23 0.0 0.0 0.00 0.00 0.00 64 1006.3
20260506000036 23 0.0 0.0 0.00 0.00 0.00 64 1006.1
20260505235016 23 0.0 0.0 0.00 0.00 0.00 64 1006.2
20260505234016 23 0.0 0.0 0.00 0.00 0.00 62 1006.2
20260505233037 24 0.0 0.0 0.00 0.00 0.00 62 1006.1
20260505232057 25 45 4.8 22.5 0.00 0.00 0.00 62 1006.1
20260505231016 25 0 1.6 12.9 0.00 0.00 0.00 60 1006.2
20260505230017 26 45 4.8 20.9 0.00 0.00 0.00 59 1005.9
20260505225016 26 23 9.7 25.7 0.00 0.00 0.00 60 1006.0
20260505224016 26 23 8.0 19.3 0.00 0.00 0.00 60 1005.8
20260505223016 27 23 8.0 20.9 0.00 0.00 0.00 60 1005.5
20260505222017 27 23 6.4 17.7 0.00 0.00 0.00 59 1005.4
20260505221056 28 23 6.4 19.3 0.00 0.00 0.00 57 1005.3
20260505220016 28 23 6.4 20.9 0.00 0.00 0.00 55 1005.3
20260505215016 28 23 4.8 14.5 0.00 0.00 0.00 54 1005.1
20260505214016 29 23 4.8 14.5 0.00 0.00 0.00 50 1005.3
20260505213016 30 23 8.0 17.7 0.00 0.00 0.00 47 1005.5
20260505212036 30 45 6.4 16.1 0.00 0.00 0.00 45 1005.4
20260505211056 31 270 3.2 14.5 0.00 0.00 0.00 45 1005.5
20260505210016 32 270 1.6 4.8 0.00 0.00 0.00 49 1005.6
20260505205016 32 248 3.2 8.0 0.00 0.00 0.00 51 1005.7
20260505204016 31 248 3.2 9.7 0.00 0.00 0.00 51 1005.8
20260505203016 31 270 3.2 9.7 0.00 0.00 0.00 50 1005.8
20260505202016 31 338 3.2 8.0 0.00 0.00 0.00 52 1006.0
20260505201016 31 248 4.8 11.3 0.00 0.00 0.00 52 1005.9
20260505200016 31 270 3.2 14.5 0.00 0.00 0.00 53 1006.1
20260505195016 31 270 3.2 12.9 0.00 0.00 0.00 55 1006.3
20260505194016 30 270 4.8 16.1 0.00 0.00 0.00 52 1006.2
20260505193016 30 270 3.2 9.7 0.00 0.00 0.00 56 1006.2
20260505192036 30 270 6.4 14.5 0.00 0.00 0.00 53 1006.2
20260505191016 30 203 3.2 11.3 0.00 0.00 0.00 57 1006.0
20260505190016 30 248 4.8 11.3 0.00 0.00 0.00 57 1006.1
20260505185036 29 270 4.8 11.3 0.00 0.00 0.00 59 1006.1
20260505184016 29 225 4.8 11.3 0.00 0.00 0.00 62 1006.1
20260505183016 28 225 3.2 8.0 0.00 0.00 0.00 64 1006.2
20260505182016 28 225 6.4 16.1 0.00 0.00 0.00 64 1006.3
20260505181016 28 203 4.8 12.9 0.00 0.00 0.00 66 1006.4
20260505180036 28 203 4.8 22.5 0.00 0.00 0.00 64 1006.4
20260505175016 28 248 4.8 11.3 0.00 0.00 0.00 66 1006.4
20260505174056 28 225 4.8 12.9 0.00 0.00 0.00 66 1006.4
20260505173016 27 180 3.2 11.3 0.00 0.00 0.00 68 1006.4
20260505172016 27 225 4.8 16.1 0.00 0.00 0.00 66 1006.3
20260505171016 27 225 6.4 12.9 0.00 0.00 0.00 67 1006.4
20260505170015 27 248 4.8 11.3 0.00 0.00 0.00 68 1006.5
20260505165016 27 270 4.8 12.9 0.00 0.00 0.00 67 1006.5
20260505164016 27 180 4.8 19.3 0.00 0.00 0.00 68 1006.4
20260505163015 26 225 4.8 17.7 0.00 0.00 0.00 71 1006.3
20260505162016 25 225 6.4 12.9 0.00 0.00 0.00 72 1006.2
20260505161015 25 0.0 0.0 0.00 0.00 0.00 74 1006.1
20260505153015 23 0.0 0.0 0.00 0.00 0.00 78 1005.9
20260505152015 23 0.0 0.0 0.00 0.00 0.00 79 1005.9
20260505151015 23 0.0 0.0 0.00 0.00 0.00 79 1005.8
20260505125015 21 0.0 0.0 0.00 0.00 0.00 84 1005.5
20260505124015 21 0.0 0.0 0.00 0.00 0.00 84 1005.3
20260505123015 21 0.0 0.0 0.00 0.00 0.00 84 1005.2
20260505122015 21 0.0 0.0 0.00 0.00 0.00 84 1005.1
20260505121015 21 0.0 0.0 0.00 0.00 0.00 84 1005.0
20260505120015 21 0.0 0.0 0.00 0.00 0.00 84 1005.1
20260505115015 21 0.0 0.0 0.00 0.00 0.00 84 1004.9
20260505114015 21 0.0 0.0 0.00 0.00 0.00 84 1004.9
20260505113015 20 0.0 0.0 0.00 0.00 0.00 84 1004.8
20260505112015 20 0.0 0.0 0.00 0.00 0.00 84 1004.8
20260505111015 20 0.0 0.0 0.00 0.00 0.00 84 1004.8
20260505102015 20 0.0 0.0 0.00 0.00 0.00 85 1004.6
20260505101015 20 0.0 0.0 0.00 0.00 0.00 84 1004.7
20260505100015 20 0.0 0.0 0.00 0.00 0.00 84 1004.8
20260505095015 20 0.0 0.0 0.00 0.00 0.00 84 1004.8
20260505094015 20 0.0 0.0 0.00 0.00 0.00 83 1004.9
20260505093015 21 0.0 0.0 0.00 0.00 0.00 83 1004.9
20260505092015 21 0.0 0.0 0.00 0.00 0.00 82 1005.0
20260505091015 21 0.0 0.0 0.00 0.00 0.00 82 1005.1
20260505090015 21 0.0 0.0 0.00 0.00 0.00 81 1005.3
20260505085015 21 0.0 0.0 0.00 0.00 0.00 81 1005.4
20260505084015 21 0.0 0.0 0.00 0.00 0.00 80 1005.3
20260505083017 21 0.0 0.0 0.00 0.00 0.00 79 1005.4
20260505082017 21 0.0 0.0 0.00 0.00 0.00 79 1005.5
20260505081037 21 0.0 0.0 0.00 0.00 0.00 78 1005.5
20260505080017 21 0.0 0.0 0.00 0.00 0.00 78 1005.4
20260505075037 22 0.0 0.0 0.00 0.00 0.00 77 1005.5
20260505074016 22 0.0 0.0 0.00 0.00 0.00 76 1005.6
20260505073016 22 0.0 0.0 0.00 0.00 0.00 76 1006.0
20260505072016 22 0.0 0.0 0.00 0.00 0.00 76 1006.1
20260505071016 22 0.0 0.0 0.00 0.00 0.00 75 1006.3
20260505070016 22 0.0 0.0 0.00 0.00 0.00 75 1006.4
20260505065016 22 0.0 0.0 0.00 0.00 0.00 74 1006.6
20260505064016 22 0.0 0.0 0.00 0.00 0.00 74 1006.7
20260505063016 22 0.0 0.0 0.00 0.00 0.00 74 1006.8
20260505062015 22 0.0 0.0 0.00 0.00 0.00 74 1006.9
20260505061016 22 0.0 0.0 0.00 0.00 0.00 74 1006.9
20260505060015 22 0.0 0.0 0.00 0.00 0.00 73 1006.8
20260505055016 22 0.0 0.0 0.00 0.00 0.00 73 1006.9